Location: Unspecified
(0.0000°N, 0.0000°E)
Time: 19:01:08
(UTC+00:00)

Vanguard 3 - Pass Details

Date: 20 November 2019
Orbit: 508 x 3263 km, 33.3° (Epoch: 08 December)

Event Time Altitude Azimuth Distance (km) Brightness Sun altitude
Rises 06:30:53 0° 194° (SSW) 3,856 10.7 10.7°
Reaches altitude 10° 06:35:44 10° 163° (SSE) 3,468 11.0 11.8°
Maximum altitude 06:39:02 12° 141° (SE) 3,670 11.7 12.6°
Drops below altitude 10° 06:42:56 10° 121° (ESE) 4,278 13.2 13.5°
Sets 06:50:59 0° 95° (E) 6,065 13.2 15.4°
